Home > Weather > Ufa > Past weeks

Flag for Russia Past Weather in Ufa, Russia — Yesterday and Last 2 Weeks

Now
61 °F

Passing clouds.


Feels Like: 61 °F
Forecast: 58 / 77 °F
Wind: 1 mph from North

Location: Ufa

Current Time: May 29, 2016 at 3:14:30 AM

Latest Report: May 29, 2016 at 2:30 AM


Visibility: N/A

Pressure: 30.04 "Hg

Humidity: 88%

Dew Point: 57 °F

Location of UfaLocation

Past Weather in Ufa — Graph

°F

Ufa Temperature Yesterday

Maximum temperature yesterday: 86 °F (at 1:00 PM)
Minimum temperature yesterday: 59 °F (at 4:30 AM)
Average temperature yesterday: 72 °F

High & Low Weather Summary for the Past Weeks

 TemperatureHumidityPressure
High86 °F (May 26, 3:30 PM)100% (May 16, 3:30 AM)30.27 "Hg (May 16, 3:30 AM)
Low32 °F (May 16, 5:00 AM)20% (May 25, 3:00 PM)29.68 "Hg (May 14, 2:30 AM)
Average61 °F57%30.05 "Hg
* Reported May 14 2:00 AM — May 29 2:00 AM, Ufa, Weather by CustomWeather, © 2016

Note: Actual official high and low records may vary slightly from our data, if they occured in-between our weather recording intervals... More about our weather records

Advertising

Ufa Weather History for the Previous 24 Hours

Scroll right to see more
 ConditionsComfort  
Time TempWeatherWind HumidityBarometerVisibility
2:00 AM
Sun, May 29
63 °FPassing clouds.3 mph77%30.04 "HgN/A
1:30 AM63 °FPassing clouds.3 mph77%30.04 "HgN/A
1:00 AM63 °FOvercast.3 mph77%30.04 "HgN/A
12:30 AM63 °FOvercast.3 mph77%30.07 "HgN/A
12:00 AM64 °FOvercast.3 mph73%30.07 "HgN/A
11:30 PM
Sat, May 28
66 °FOvercast.3 mph64%30.07 "HgN/A
11:00 PM68 °FThundershowers. Overcast.6 mph64%30.07 "HgN/A
10:30 PM68 °FThunderstorms. Overcast.8 mph64%30.07 "HgN/A
10:00 PM72 °FOvercast.15 mph53%30.04 "HgN/A
9:30 PM70 °FThunderstorms. Overcast.8 mph64%30.04 "HgN/A
9:00 PM75 °FThunderstorms. Overcast.15 mph47%30.04 "HgN/A
8:30 PM73 °FOvercast.6 mph61%30.01 "HgN/A
8:00 PM75 °FMostly cloudy.6 mph57%29.98 "HgN/A
7:30 PM77 °FMostly cloudy.6 mph54%29.98 "HgN/A
7:00 PM79 °FThundershowers. Mostly cloudy.No wind54%29.98 "HgN/A
6:30 PM81 °FBroken clouds.6 mph45%29.98 "HgN/A
6:00 PM84 °FBroken clouds.3 mph37%29.98 "HgN/A
5:30 PM82 °FBroken clouds.3 mph40%30.01 "HgN/A
5:00 PM84 °FBroken clouds.1 mph35%30.01 "HgN/A
4:30 PM82 °FMostly cloudy.3 mph42%30.01 "HgN/A
4:00 PM81 °FMostly cloudy.3 mph48%30.01 "HgN/A
3:30 PM79 °FSprinkles. Mostly cloudy.6 mph54%30.01 "HgN/A
3:00 PM84 °FThundershowers. Mostly cloudy.6 mph40%30.01 "HgN/A
2:30 PM84 °FThunderstorms. Mostly cloudy.1 mph43%30.01 "HgN/A
2:00 PM77 °FThunderstorms. Mostly cloudy.3 mph51%30.01 "HgN/A
1:30 PM75 °FThunderstorms. Mostly cloudy.13 mph50%30.01 "HgN/A
1:00 PM86 °FThunderstorms. Broken clouds.6 mph35%30.01 "HgN/A
12:30 PM84 °FPassing clouds.3 mph35%30.01 "HgN/A
12:00 PM84 °FSunny.3 mph40%30.01 "Hg10 mi
11:30 AM84 °FPassing clouds.3 mph40%30.01 "HgN/A
11:00 AM82 °FSunny.1 mph45%30.04 "Hg10 mi
10:30 AM79 °FSunny.1 mph51%30.04 "Hg10 mi
10:00 AM79 °FSunny.1 mph51%30.04 "Hg10 mi
9:30 AM75 °FSunny.No wind57%30.04 "Hg10 mi
9:00 AM73 °FSunny.1 mph61%30.04 "Hg10 mi
8:30 AM70 °FPassing clouds.3 mph64%30.04 "HgN/A
8:00 AM68 °FPassing clouds.3 mph69%30.04 "HgN/A
7:30 AM66 °FPassing clouds.3 mph73%30.04 "HgN/A
7:00 AM64 °FSunny.3 mph78%30.04 "Hg10 mi
6:30 AM61 °FSunny.3 mph83%30.04 "Hg10 mi
6:00 AM59 °FSunny.1 mph88%30.04 "Hg10 mi
5:30 AM59 °FClear.3 mph88%30.04 "Hg10 mi
5:00 AM61 °FClear.No wind83%30.04 "Hg10 mi
4:30 AM59 °FClear.1 mph88%30.04 "Hg10 mi
4:00 AM61 °FClear.1 mph83%30.04 "Hg10 mi
3:30 AM61 °FClear.No wind83%30.04 "Hg10 mi
3:00 AM61 °FClear.No wind83%30.04 "Hg10 mi
Weather by CustomWeather, © 2016

See weather overviewHow to use our weather pages